ASTRA 1L                
1 31306U 07016A   19261.32688176  .00000116  00000-0  00000+0 0  9994
2 31306   0.0884 294.7703 0003000 299.3692 259.6966  1.00273634 45334
GALAXY 17 (G-17)        
1 31307U 07016B   19260.81991036 -.00000179  00000-0  00000+0 0  9990
2 31307   0.0199 135.5460 0003775  48.9455  16.1496  1.00272762 45368
ARIANE 5 R/B            
1 31308U 07016C   19261.02925669  .00001338  00000-0  39438-3 0  9992
2 31308   5.4043 176.5229 7075900 196.0539 118.0013  2.54047727109064